Hourly Data Report for October 09, 2014

All times are specified in Local Standard Time (LST). Add 1 hour to adjust for Daylight Saving Time where and when it is observed.

MONCTON INTL A
NEW BRUNSWICK

46°06'44.000" N
64°40'43.000" W
70.70 m
8103201
71705
YQM

Download Data

Hourly Data (October 2014)
Hourly Data Report for October 9, 2014
Temp Definition
°C
Dew Point Temp Definition
°C
Rel Hum Definition
%
Wind Dir Definition
10's deg

Wind Spd Definition
km/h
Visibility Definition
km
Stn Press Definition
kPa
Hmdx Definition


Wind Chill Definition


Weather Definition


TIME
00:00 Legend Double Dagger 12.4 11.5 94 22 14 24.1 99.69     LegendNANA
01:00 Legend Double Dagger 11.3 10.7 96 22 11 24.1 99.70     LegendNANA
02:00 Legend Double Dagger 10.8 10.2 96 20 12 24.1 99.70     Mainly Clear
03:00 Legend Double Dagger 10.1 9.3 95 20 12 24.1 99.71     LegendNANA
04:00 Legend Double Dagger 9.9 9.0 94 23 15 24.1 99.74     LegendNANA
05:00 Legend Double Dagger 8.8 7.7 93 22 12 24.1 99.76     Mainly Clear
06:00 Legend Double Dagger 9.2 8.1 93 20 10 24.1 99.83     LegendNANA
07:00 Legend Double Dagger 9.6 8.2 91 20 12 24.1 99.84     LegendNANA
08:00 Legend Double Dagger 10.6 8.5 87 23 17 24.1 99.88     Mostly Cloudy
09:00 Legend Double Dagger 11.4 8.3 81 24 20 24.1 99.93     LegendNANA
10:00 Legend Double Dagger 11.5 5.4 66 25 26 24.1 99.97     LegendNANA
11:00 Legend Double Dagger 12.9 5.6 61 25 21 24.1 99.94     Mainly Clear
12:00 Legend Double Dagger 14.1 5.8 57 23 27 24.1 99.90     LegendNANA
13:00 Legend Double Dagger 14.8 3.7 47 26 26 24.1 99.85     LegendNANA
14:00 Legend Double Dagger 13.8 2.5 46 26 26 24.1 99.87     Mostly Cloudy
15:00 Legend Double Dagger 14.0 2.3 45 25 23 24.1 99.88     LegendNANA
16:00 Legend Double Dagger 13.1 1.2 44 23 23 24.1 99.92     LegendNANA
17:00 Legend Double Dagger 12.6 2.2 49 23 15 24.1 99.95     Mainly Clear
18:00 Legend Double Dagger 10.3 2.2 57 21 8 24.1 99.98     LegendNANA
19:00 Legend Double Dagger 8.9 2.3 63 18 11 24.1 100.01     LegendNANA
20:00 Legend Double Dagger 7.7 3.0 72 20 9 24.1 100.03     Mainly Clear
21:00 Legend Double Dagger 7.2 4.2 81 19 12 24.1 100.05     LegendNANA
22:00 Legend Double Dagger 7.8 4.9 82 18 11 24.1 100.02     LegendNANA
23:00 Legend Double Dagger 6.9 4.1 82 18 10 24.1 100.01     Mainly Clear

Notes on Data Quality.

Legend

  • E = Estimated
  • M = Missing
  • NA = Not Available
  • ‡ = Partner data that is not subject to review by the National Climate Archives
Date modified: